TimeAKST,TemperatureF,Dew PointF,Humidity,Sea Level PressureIn,VisibilityMPH,Wind Direction,Wind SpeedMPH,Gust SpeedMPH,PrecipitationIn,Events,Conditions,WindDirDegrees,DateUTC
12:53 AM,41.0,33.1,73,29.53,10.0,WNW,4.6,-,N/A,,Overcast,290,2012-11-14 09:53:00
1:53 AM,39.9,33.1,77,29.51,10.0,West,4.6,-,N/A,,Overcast,260,2012-11-14 10:53:00
3:53 AM,42.1,32.0,67,29.45,10.0,SSW,3.5,-,N/A,,Overcast,210,2012-11-14 12:53:00
4:53 AM,37.0,33.1,86,29.44,9.0,West,11.5,-,0.00,Snow,Light Snow,260,2012-11-14 13:53:00
5:24 AM,37.4,33.8,87,29.44,7.0,WSW,10.4,-,0.01,Snow,Light Snow,250,2012-11-14 14:24:00
5:53 AM,36.0,33.1,89,29.44,5.0,West,5.8,-,0.05,Snow,Light Snow,260,2012-11-14 14:53:00
6:53 AM,36.0,33.1,89,29.42,7.0,WSW,4.6,-,0.04,Snow,Light Snow,240,2012-11-14 15:53:00
7:17 AM,35.6,33.8,93,29.40,10.0,WSW,3.5,-,0.01,,Overcast,250,2012-11-14 16:17:00
7:53 AM,36.0,33.1,89,29.40,10.0,Calm,Calm,-,0.01,,Overcast,0,2012-11-14 16:53:00
8:28 AM,35.6,33.8,93,29.39,7.0,Calm,Calm,-,0.01,Rain,Light Rain,0,2012-11-14 17:28:00
8:53 AM,35.1,32.0,89,29.39,7.0,NNE,3.5,-,0.03,,Overcast,20,2012-11-14 17:53:00
9:53 AM,35.1,33.1,92,29.37,9.0,NE,3.5,-,0.00,Rain,Light Rain,40,2012-11-14 18:53:00
10:00 AM,35.6,33.8,93,29.37,7.0,NE,3.5,-,0.00,Rain,Light Rain,40,2012-11-14 19:00:00
10:42 AM,35.6,33.8,93,29.36,10.0,Calm,Calm,-,0.00,Rain,Light Rain,0,2012-11-14 19:42:00
10:53 AM,35.1,33.1,92,29.36,10.0,Calm,Calm,-,0.01,Rain,Light Rain,0,2012-11-14 19:53:00
11:19 AM,35.6,33.8,93,29.36,9.0,Calm,Calm,-,0.00,,Overcast,0,2012-11-14 20:19:00
11:28 AM,35.6,33.8,93,29.36,8.0,Calm,Calm,-,0.00,,Overcast,0,2012-11-14 20:28:00
11:53 AM,36.0,33.1,89,29.35,10.0,Calm,Calm,-,0.00,Rain,Light Rain,0,2012-11-14 20:53:00
12:06 PM,35.6,33.8,93,29.34,10.0,Calm,Calm,-,0.00,Rain,Light Rain,0,2012-11-14 21:06:00
12:53 PM,37.0,33.1,86,29.32,10.0,Calm,Calm,-,0.00,,Mostly Cloudy,0,2012-11-14 21:53:00
1:53 PM,36.0,33.1,89,29.31,10.0,Calm,Calm,-,N/A,,Overcast,0,2012-11-14 22:53:00
2:53 PM,37.0,34.0,89,29.29,10.0,Calm,Calm,-,N/A,,Overcast,0,2012-11-14 23:53:00
3:53 PM,37.0,32.0,82,29.27,10.0,Calm,Calm,-,N/A,,Mostly Cloudy,0,2012-11-15 00:53:00
4:53 PM,36.0,33.1,89,29.28,10.0,Calm,Calm,-,N/A,,Mostly Cloudy,0,2012-11-15 01:53:00
5:00 PM,35.6,33.8,93,29.27,10.0,Calm,Calm,-,N/A,,Overcast,0,2012-11-15 02:00:00
5:10 PM,35.6,33.8,93,29.27,7.0,Calm,Calm,-,N/A,,Overcast,0,2012-11-15 02:10:00
5:53 PM,36.0,32.0,86,29.28,10.0,ENE,5.8,-,N/A,,Overcast,60,2012-11-15 02:53:00
6:53 PM,35.1,32.0,89,29.28,10.0,NE,5.8,-,N/A,,Overcast,50,2012-11-15 03:53:00
7:35 PM,33.8,30.2,87,29.28,10.0,NE,5.8,-,0.00,,Overcast,40,2012-11-15 04:35:00
7:53 PM,34.0,30.9,89,29.29,10.0,NE,4.6,-,0.00,,Overcast,50,2012-11-15 04:53:00
8:53 PM,33.1,30.0,89,29.29,10.0,ENE,9.2,-,N/A,,Overcast,70,2012-11-15 05:53:00
9:53 PM,33.1,28.9,85,29.30,10.0,NE,4.6,-,N/A,,Overcast,40,2012-11-15 06:53:00
10:26 PM,33.8,28.4,81,29.31,10.0,NE,5.8,-,N/A,,Overcast,40,2012-11-15 07:26:00
10:53 PM,33.1,28.9,85,29.31,10.0,NE,4.6,-,N/A,,Overcast,50,2012-11-15 07:53:00
11:53 PM,32.0,28.0,85,29.33,10.0,NE,4.6,-,N/A,,Overcast,50,2012-11-15 08:53:00